Location: Skanderborg
(56.0313°N, 9.9317°E)
Time: 23:59:55
(UTC+00:00)

Cosmos 405 Rocket - Pass Details

Date: 15 August 2020
Orbit: 490 x 553 km, 81.3° (Epoch: 23 September)

Event Time Altitude Azimuth Distance (km) Brightness Sun altitude
Rises 20:50:25 0° 209° (SSW) 2,575 6.0 -13.2°
Reaches altitude 10° 20:52:34 10° 215° (SW) 1,704 5.2 -13.4°
Maximum altitude 20:56:10 46° 290° (WNW) 690 3.7 -13.7°
Drops below altitude 10° 20:59:53 10° 5° (N) 1,748 6.1 -14.0°
Sets 21:02:07 0° 12° (NNE) 2,651 7.0 -14.2°
